UAE602 OMDB-OPKC

Flight info

Callsign UAE602
Flight time 1h 36m
Altitude 37000
Route IVURO M677 LALDO B505 NADSO B524 ALPOR G216 LAKIV
Aircraft B77W/H-SDE1E2E3FGHIJ2J3J4J5M1RWXYZ/LB1D1

Departure

Time 2026-04-24 11:58
Airport Dubai International Airport (OMDB)

Arrival

Time 2026-04-24 13:34
Airport Jinnah International Airport (OPKC)
Time Latitude Longitude Altitude Speed Heading
2026-04-24 11:31 25.24190 55.37249 30 ft 0 kts 31°
2026-04-24 11:47 25.24180 55.37242 31 ft 3 kts 31°
2026-04-24 11:47 25.24169 55.37235 31 ft 3 kts 31°
2026-04-24 11:47 25.24152 55.37223 31 ft 3 kts 31°
2026-04-24 11:47 25.24135 55.37211 31 ft 3 kts 48°
2026-04-24 11:48 25.24125 55.37193 31 ft 3 kts 81°
2026-04-24 11:48 25.24126 55.37173 31 ft 3 kts 113°
2026-04-24 11:48 25.24137 55.37150 31 ft 3 kts 122°
2026-04-24 11:48 25.24148 55.37131 31 ft 3 kts 122°
2026-04-24 11:49 25.24152 55.37124 31 ft 0 kts 122°
2026-04-24 11:52 25.24152 55.37125 31 ft 1 kts 122°
2026-04-24 11:52 25.24145 55.37136 31 ft 3 kts 121°
2026-04-24 11:52 25.24130 55.37163 31 ft 5 kts 122°
2026-04-24 11:52 25.24106 55.37207 31 ft 8 kts 122°
2026-04-24 11:53 25.24076 55.37260 29 ft 8 kts 122°
2026-04-24 11:53 25.24045 55.37315 30 ft 8 kts 122°
2026-04-24 11:53 25.24013 55.37371 31 ft 9 kts 122°
2026-04-24 11:53 25.23977 55.37441 29 ft 11 kts 113°
2026-04-24 11:54 25.23969 55.37526 26 ft 11 kts 79°
2026-04-24 11:54 25.24009 55.37599 28 ft 11 kts 42°
2026-04-24 11:54 25.24073 55.37647 28 ft 11 kts 32°
2026-04-24 11:54 25.24139 55.37691 30 ft 11 kts 31°
2026-04-24 11:55 25.24208 55.37737 30 ft 12 kts 31°
2026-04-24 11:55 25.24287 55.37790 29 ft 14 kts 31°
2026-04-24 11:55 25.24366 55.37848 27 ft 14 kts 34°
2026-04-24 11:55 25.24444 55.37907 29 ft 14 kts 34°
2026-04-24 11:56 25.24523 55.37966 29 ft 14 kts 34°
2026-04-24 11:56 25.24600 55.38025 28 ft 13 kts 33°
2026-04-24 11:56 25.24678 55.38079 29 ft 13 kts 31°
2026-04-24 11:56 25.24737 55.38109 31 ft 8 kts
2026-04-24 11:57 25.24780 55.38073 30 ft 12 kts 301°
2026-04-24 11:57 25.24912 55.37836 31 ft 71 kts 301°
2026-04-24 11:57 25.25297 55.37143 31 ft 138 kts 302°
2026-04-24 11:57 25.25878 55.36102 218 ft 169 kts 303°
2026-04-24 11:58 25.26506 55.34964 789 ft 178 kts 305°
2026-04-24 11:58 25.27165 55.33766 1368 ft 190 kts 304°
2026-04-24 11:58 25.27900 55.32439 1687 ft 216 kts 304°
2026-04-24 11:58 25.28721 55.30980 2238 ft 226 kts 304°
2026-04-24 11:59 25.29837 55.29755 2819 ft 233 kts 336°
2026-04-24 11:59 25.31444 55.29464 3479 ft 239 kts 360°
2026-04-24 11:59 25.33138 55.29530 4078 ft 247 kts 359°
2026-04-24 11:59 25.34944 55.29580 4454 ft 272 kts 359°
2026-04-24 12:00 25.36862 55.29634 5154 ft 280 kts 358°
2026-04-24 12:00 25.38818 55.29775 5877 ft 285 kts
2026-04-24 12:00 25.40652 55.30775 6319 ft 312 kts 40°
2026-04-24 12:00 25.42109 55.32670 6512 ft 336 kts 52°
2026-04-24 12:01 25.43589 55.34802 6792 ft 358 kts 50°
2026-04-24 12:01 25.44996 55.37104 7254 ft 368 kts 65°
2026-04-24 12:01 25.45528 55.39893 7905 ft 377 kts 92°
2026-04-24 12:01 25.45211 55.42746 8580 ft 375 kts 97°
2026-04-24 12:02 25.44911 55.45604 9180 ft 383 kts 99°
2026-04-24 12:02 25.44453 55.48521 9945 ft 387 kts 102°
2026-04-24 12:02 25.43916 55.51451 10767 ft 390 kts 103°
2026-04-24 12:02 25.43364 55.54393 11626 ft 391 kts 103°
2026-04-24 12:03 25.42820 55.57345 12022 ft 394 kts 103°
2026-04-24 12:03 25.42283 55.60337 11997 ft 395 kts 102°
2026-04-24 12:03 25.41762 55.63311 11998 ft 394 kts 102°
2026-04-24 12:03 25.41249 55.66284 11994 ft 393 kts 102°
2026-04-24 12:04 25.40742 55.69251 12004 ft 392 kts 102°
2026-04-24 12:04 25.40236 55.72214 11995 ft 393 kts 102°
2026-04-24 12:04 25.39729 55.75183 11991 ft 393 kts 102°
2026-04-24 12:04 25.39222 55.78149 12000 ft 393 kts 102°
2026-04-24 12:05 25.38715 55.81117 11999 ft 393 kts 102°
2026-04-24 12:05 25.38206 55.84088 11996 ft 394 kts 102°
2026-04-24 12:05 25.37696 55.87062 12003 ft 393 kts 102°
2026-04-24 12:05 25.37185 55.90033 11998 ft 394 kts 103°
2026-04-24 12:06 25.36672 55.93014 12097 ft 395 kts 103°
2026-04-24 12:06 25.36155 55.96010 13047 ft 397 kts 102°
2026-04-24 12:06 25.35634 55.99028 13997 ft 402 kts 103°
2026-04-24 12:06 25.35104 56.02097 14704 ft 411 kts 102°
2026-04-24 12:07 25.34565 56.05211 15608 ft 414 kts 102°
2026-04-24 12:07 25.34020 56.08366 16381 ft 422 kts 102°
2026-04-24 12:07 25.33462 56.11585 17126 ft 429 kts 102°
2026-04-24 12:07 25.32902 56.14825 18103 ft 431 kts 101°
2026-04-24 12:08 25.32480 56.18137 18751 ft 439 kts 96°
2026-04-24 12:08 25.32205 56.21529 19395 ft 446 kts 95°
2026-04-24 12:08 25.31961 56.24968 20177 ft 449 kts 95°
2026-04-24 12:08 25.31707 56.28419 20896 ft 454 kts 95°
2026-04-24 12:09 25.31430 56.31915 21656 ft 457 kts 96°
2026-04-24 12:09 25.31138 56.35421 22478 ft 459 kts 96°
2026-04-24 12:09 25.30842 56.38947 23163 ft 463 kts 96°
2026-04-24 12:09 25.30661 56.42529 23690 ft 470 kts 92°
2026-04-24 12:10 25.30574 56.46109 24188 ft 475 kts 92°
2026-04-24 12:10 25.30495 56.49772 24735 ft 479 kts 92°
2026-04-24 12:10 25.30398 56.53459 25295 ft 482 kts 92°
2026-04-24 12:11 25.29515 56.60824 26450 ft 487 kts 104°
2026-04-24 12:11 25.28578 56.64436 26936 ft 491 kts 110°
2026-04-24 12:11 25.27311 56.67958 27412 ft 495 kts 114°
2026-04-24 12:11 25.25955 56.71473 27903 ft 499 kts 114°
2026-04-24 12:12 25.24575 56.75013 28386 ft 503 kts 114°
2026-04-24 12:12 25.23189 56.78578 28863 ft 507 kts 114°
2026-04-24 12:12 25.21802 56.82175 29352 ft 511 kts 114°
2026-04-24 12:12 25.20413 56.85802 29792 ft 515 kts 114°
2026-04-24 12:13 25.19019 56.89458 30121 ft 519 kts 114°
2026-04-24 12:13 25.17617 56.93148 30472 ft 522 kts 114°
2026-04-24 12:13 25.16209 56.96851 30916 ft 523 kts 114°
2026-04-24 12:13 25.14806 57.00538 31465 ft 519 kts 113°
2026-04-24 12:14 25.13414 57.04195 32156 ft 515 kts 113°
2026-04-24 12:14 25.12024 57.07839 32577 ft 516 kts 114°
2026-04-24 12:14 25.10621 57.11513 32909 ft 519 kts 114°
2026-04-24 12:14 25.09216 57.15185 33316 ft 520 kts 114°
2026-04-24 12:15 25.07810 57.18857 33763 ft 520 kts 114°
2026-04-24 12:15 25.06403 57.22532 34124 ft 520 kts 114°
2026-04-24 12:15 25.04993 57.26208 34432 ft 522 kts 114°
2026-04-24 12:15 25.03579 57.29893 34712 ft 524 kts 113°
2026-04-24 12:16 25.02154 57.33603 35020 ft 525 kts 113°
2026-04-24 12:16 25.00730 57.37307 35332 ft 526 kts 113°
2026-04-24 12:16 24.99299 57.41026 35624 ft 526 kts 113°
2026-04-24 12:16 24.97869 57.44740 35993 ft 526 kts 113°
2026-04-24 12:17 24.96439 57.48451 36278 ft 527 kts 113°
2026-04-24 12:17 24.95004 57.52171 36530 ft 529 kts 113°
2026-04-24 12:17 24.93560 57.55913 36727 ft 532 kts 113°
2026-04-24 12:18 24.90662 57.63410 36790 ft 536 kts 113°
2026-04-24 12:18 24.87757 57.70913 36778 ft 527 kts 112°
2026-04-24 12:19 24.85009 57.78000 36794 ft 524 kts 113°
2026-04-24 12:19 24.82555 57.85528 36779 ft 522 kts 102°
2026-04-24 12:20 24.80988 57.93333 36806 ft 524 kts 100°
2026-04-24 12:20 24.79454 58.01189 36800 ft 526 kts 101°
2026-04-24 12:21 24.77872 58.09054 36796 ft 527 kts 101°
2026-04-24 12:21 24.76259 58.16922 36794 ft 527 kts 101°
2026-04-24 12:22 24.74635 58.24792 36797 ft 526 kts 101°
2026-04-24 12:22 24.73018 58.32627 36789 ft 525 kts 101°
2026-04-24 12:23 24.71402 58.40441 36793 ft 523 kts 101°
2026-04-24 12:23 24.69788 58.48231 36796 ft 522 kts 101°
2026-04-24 12:24 24.68173 58.56003 36795 ft 520 kts 101°
2026-04-24 12:24 24.66558 58.63749 36794 ft 520 kts 101°
2026-04-24 12:25 24.64940 58.71491 36792 ft 519 kts 101°
2026-04-24 12:25 24.63319 58.79227 36795 ft 519 kts 101°
2026-04-24 12:26 24.61695 58.86959 36796 ft 520 kts 101°
2026-04-24 12:26 24.60061 58.94713 36797 ft 521 kts 101°
2026-04-24 12:27 24.58425 59.02456 36796 ft 521 kts 102°
2026-04-24 12:27 24.56792 59.10167 36795 ft 521 kts 101°
2026-04-24 12:28 24.55146 59.17922 36794 ft 521 kts 101°
2026-04-24 12:28 24.53487 59.25721 36794 ft 521 kts 101°
2026-04-24 12:29 24.51839 59.33474 36803 ft 521 kts 101°
2026-04-24 12:29 24.50191 59.41218 36796 ft 520 kts 101°
2026-04-24 12:30 24.48541 59.48948 36792 ft 520 kts 101°
2026-04-24 12:30 24.46890 59.56663 36796 ft 519 kts 101°
2026-04-24 12:31 24.45248 59.64315 36804 ft 518 kts 101°
2026-04-24 12:31 24.43593 59.72005 36784 ft 518 kts 101°
2026-04-24 12:32 24.41936 59.79687 36791 ft 517 kts 101°
2026-04-24 12:32 24.40276 59.87360 36798 ft 517 kts 101°
2026-04-24 12:33 24.38616 59.95020 36798 ft 516 kts 101°
2026-04-24 12:33 24.37232 60.01385 36792 ft 516 kts 101°
2026-04-24 12:34 24.35566 60.09037 36795 ft 516 kts 101°
2026-04-24 12:34 24.33888 60.16694 36796 ft 516 kts 101°
2026-04-24 12:35 24.32204 60.24337 36800 ft 515 kts 101°
2026-04-24 12:35 24.30521 60.31967 36781 ft 515 kts 101°
2026-04-24 12:36 24.28837 60.39585 36790 ft 514 kts 101°
2026-04-24 12:36 24.27149 60.47202 36801 ft 514 kts 101°
2026-04-24 12:37 24.25461 60.54800 36796 ft 513 kts 101°
2026-04-24 12:37 24.23770 60.62394 36799 ft 513 kts 101°
2026-04-24 12:38 24.22079 60.69974 36798 ft 513 kts 101°
2026-04-24 12:38 24.20393 60.77511 36801 ft 512 kts 101°
2026-04-24 12:39 24.16991 60.92671 36795 ft 512 kts 101°
2026-04-24 12:40 24.15285 61.00252 36791 ft 513 kts 101°
2026-04-24 12:40 24.13575 61.07832 36807 ft 513 kts 101°
2026-04-24 12:41 24.11863 61.15403 36798 ft 513 kts 101°
2026-04-24 12:41 24.10148 61.22970 36795 ft 512 kts 101°
2026-04-24 12:42 24.08645 61.30577 36791 ft 509 kts 93°
2026-04-24 12:42 24.08505 61.38252 36805 ft 502 kts 82°
2026-04-24 12:43 24.09544 61.45775 36805 ft 499 kts 76°
2026-04-24 12:43 24.10726 61.53252 36795 ft 499 kts 77°
2026-04-24 12:44 24.11853 61.60742 36798 ft 499 kts 77°
2026-04-24 12:44 24.12947 61.68241 36798 ft 499 kts 77°
2026-04-24 12:45 24.14037 61.75732 36795 ft 499 kts 77°
2026-04-24 12:45 24.15116 61.83232 36796 ft 499 kts 78°
2026-04-24 12:46 24.16139 61.90759 36799 ft 499 kts 78°
2026-04-24 12:46 24.17146 61.98279 36799 ft 499 kts 78°
2026-04-24 12:47 24.18156 62.05800 36792 ft 498 kts 78°
2026-04-24 12:47 24.19165 62.13305 36793 ft 498 kts 78°
2026-04-24 12:48 24.20166 62.20768 36796 ft 497 kts 78°
2026-04-24 12:48 24.21168 62.28269 36797 ft 497 kts 78°
2026-04-24 12:49 24.22163 62.35748 36796 ft 496 kts 78°
2026-04-24 12:49 24.23153 62.43223 36792 ft 495 kts 78°
2026-04-24 12:50 24.24139 62.50687 36791 ft 495 kts 78°
2026-04-24 12:50 24.25119 62.58141 36795 ft 494 kts 79°
2026-04-24 12:51 24.26096 62.65599 36789 ft 494 kts 79°
2026-04-24 12:51 24.27068 62.73047 36793 ft 493 kts 79°
2026-04-24 12:52 24.28034 62.80482 36792 ft 493 kts 79°
2026-04-24 12:52 24.28997 62.87918 36796 ft 493 kts 79°
2026-04-24 12:53 24.29956 62.95353 36790 ft 492 kts 79°
2026-04-24 12:53 24.30911 63.02787 36788 ft 492 kts 79°
2026-04-24 12:54 24.31861 63.10212 36787 ft 492 kts 79°
2026-04-24 12:54 24.32802 63.17590 36789 ft 491 kts 79°
2026-04-24 12:55 24.33742 63.25000 36791 ft 491 kts 79°
2026-04-24 12:55 24.34678 63.32401 36791 ft 490 kts 79°
2026-04-24 12:56 24.35611 63.39804 36788 ft 489 kts 79°
2026-04-24 12:56 24.36537 63.47187 36793 ft 489 kts 79°
2026-04-24 12:57 24.37461 63.54581 36794 ft 489 kts 79°
2026-04-24 12:57 24.38379 63.61961 36792 ft 488 kts 79°
2026-04-24 12:58 24.39294 63.69344 36790 ft 488 kts 79°
2026-04-24 12:58 24.40204 63.76712 36793 ft 488 kts 79°
2026-04-24 12:59 24.41110 63.84085 36791 ft 488 kts 79°
2026-04-24 12:59 24.42012 63.91453 36792 ft 487 kts 79°
2026-04-24 13:00 24.42911 63.98825 36795 ft 487 kts 79°
2026-04-24 13:00 24.43805 64.06189 36799 ft 487 kts 80°
2026-04-24 13:01 24.44695 64.13550 36799 ft 486 kts 80°
2026-04-24 13:01 24.45580 64.20903 36793 ft 486 kts 80°
2026-04-24 13:02 24.46455 64.28196 36798 ft 485 kts 80°
2026-04-24 13:02 24.47331 64.35531 36797 ft 484 kts 80°
2026-04-24 13:03 24.48202 64.42854 36804 ft 484 kts 80°
2026-04-24 13:03 24.49068 64.50167 36797 ft 483 kts 80°
2026-04-24 13:04 24.49930 64.57474 36798 ft 482 kts 80°
2026-04-24 13:04 24.50787 64.64771 36798 ft 482 kts 80°
2026-04-24 13:05 24.51640 64.72071 36801 ft 482 kts 80°
2026-04-24 13:05 24.52491 64.79375 36801 ft 482 kts 80°
2026-04-24 13:06 24.53285 64.86686 36801 ft 483 kts 82°
2026-04-24 13:06 24.53851 64.94041 36804 ft 483 kts 83°
2026-04-24 13:07 24.54376 65.01395 36810 ft 483 kts 83°
2026-04-24 13:07 24.54923 65.08713 36803 ft 484 kts 83°
2026-04-24 13:08 24.55491 65.16081 36802 ft 484 kts 83°
2026-04-24 13:08 24.56060 65.23453 36801 ft 484 kts 83°
2026-04-24 13:09 24.56904 65.34501 36805 ft 484 kts 83°
2026-04-24 13:09 24.57460 65.41857 36805 ft 484 kts 83°
2026-04-24 13:10 24.57740 65.45567 36209 ft 492 kts 83°
2026-04-24 13:10 24.58023 65.49332 35544 ft 493 kts 83°
2026-04-24 13:10 24.58304 65.53087 34739 ft 494 kts 83°
2026-04-24 13:10 24.58583 65.56847 33920 ft 495 kts 83°
2026-04-24 13:11 24.58864 65.60626 32958 ft 496 kts 83°
2026-04-24 13:11 24.59144 65.64415 32038 ft 497 kts 83°
2026-04-24 13:11 24.59421 65.68179 31403 ft 492 kts 84°
2026-04-24 13:11 24.59694 65.71900 30807 ft 487 kts 84°
2026-04-24 13:12 24.59963 65.75591 30237 ft 482 kts 84°
2026-04-24 13:12 24.60230 65.79245 29631 ft 478 kts 84°
2026-04-24 13:12 24.60494 65.82880 28974 ft 474 kts 84°
2026-04-24 13:12 24.60751 65.86423 28387 ft 470 kts 84°
2026-04-24 13:13 24.61012 65.90029 27797 ft 465 kts 84°
2026-04-24 13:13 24.61265 65.93548 27238 ft 461 kts 84°
2026-04-24 13:13 24.61517 65.97051 26681 ft 457 kts 84°
2026-04-24 13:13 24.61765 66.00519 26129 ft 454 kts 84°
2026-04-24 13:14 24.62011 66.03962 25587 ft 451 kts 84°
2026-04-24 13:14 24.62255 66.07394 25040 ft 449 kts 84°
2026-04-24 13:14 24.62497 66.10801 24483 ft 447 kts 85°
2026-04-24 13:14 24.62737 66.14199 23941 ft 445 kts 85°
2026-04-24 13:15 24.62976 66.17589 23389 ft 444 kts 85°
2026-04-24 13:15 24.63212 66.20960 22759 ft 442 kts 85°
2026-04-24 13:15 24.63447 66.24317 22186 ft 439 kts 85°
2026-04-24 13:15 24.63680 66.27657 21645 ft 436 kts 85°
2026-04-24 13:16 24.63910 66.30963 21104 ft 433 kts 85°
2026-04-24 13:16 24.64138 66.34251 20574 ft 430 kts 85°
2026-04-24 13:16 24.64363 66.37509 20046 ft 426 kts 85°
2026-04-24 13:16 24.64586 66.40752 19516 ft 424 kts 85°
2026-04-24 13:17 24.64805 66.43934 18992 ft 421 kts 85°
2026-04-24 13:17 24.65024 66.47141 18449 ft 419 kts 85°
2026-04-24 13:17 24.65242 66.50328 17882 ft 417 kts 86°
2026-04-24 13:17 24.65457 66.53499 17317 ft 414 kts 85°
2026-04-24 13:18 24.65670 66.56638 16779 ft 411 kts 85°
2026-04-24 13:18 24.65880 66.59753 16342 ft 405 kts 85°
2026-04-24 13:18 24.66087 66.62815 15918 ft 399 kts 85°
2026-04-24 13:18 24.66224 66.64860 15627 ft 395 kts 85°
2026-04-24 13:19 24.66490 66.68816 15089 ft 388 kts 85°
2026-04-24 13:19 24.66621 66.70766 14826 ft 385 kts 85°
2026-04-24 13:19 24.66816 66.73688 14428 ft 381 kts 85°
2026-04-24 13:19 24.67008 66.76574 14031 ft 377 kts 85°
2026-04-24 13:20 24.67198 66.79436 13632 ft 374 kts 84°
2026-04-24 13:20 24.67386 66.82268 13197 ft 370 kts 84°
2026-04-24 13:20 24.67571 66.85064 12784 ft 367 kts 85°
2026-04-24 13:20 24.67754 66.87849 12394 ft 363 kts 84°
2026-04-24 13:21 24.67935 66.90607 12025 ft 360 kts 84°
2026-04-24 13:21 24.68113 66.93316 11799 ft 352 kts 85°
2026-04-24 13:21 24.68285 66.95951 11717 ft 339 kts 84°
2026-04-24 13:21 24.68450 66.98485 11633 ft 327 kts 84°
2026-04-24 13:22 24.68609 67.00935 11548 ft 315 kts 85°
2026-04-24 13:22 24.68759 67.03262 11469 ft 303 kts 84°
2026-04-24 13:22 24.69171 67.05454 11279 ft 288 kts 63°
2026-04-24 13:22 24.70157 67.07323 11002 ft 280 kts 57°
2026-04-24 13:23 24.71160 67.09132 10686 ft 273 kts 57°
2026-04-24 13:23 24.72136 67.10908 10177 ft 271 kts 57°
2026-04-24 13:23 24.73110 67.12687 9621 ft 272 kts 58°
2026-04-24 13:23 24.74082 67.14470 9058 ft 272 kts 57°
2026-04-24 13:24 24.75055 67.16262 8493 ft 272 kts 57°
2026-04-24 13:24 24.76021 67.18042 7980 ft 270 kts 57°
2026-04-24 13:24 24.76983 67.19819 7571 ft 271 kts 58°
2026-04-24 13:24 24.77943 67.21596 7316 ft 268 kts 57°
2026-04-24 13:25 24.78892 67.23353 7066 ft 266 kts 58°
2026-04-24 13:25 24.79834 67.25098 6766 ft 265 kts 58°
2026-04-24 13:25 24.80770 67.26833 6506 ft 264 kts 58°
2026-04-24 13:25 24.81706 67.28570 6224 ft 263 kts 58°
2026-04-24 13:26 24.82631 67.30287 5958 ft 260 kts 58°
2026-04-24 13:26 24.83547 67.31986 5709 ft 256 kts 57°
2026-04-24 13:26 24.84447 67.33660 5461 ft 252 kts 57°
2026-04-24 13:26 24.85334 67.35307 5220 ft 248 kts 57°
2026-04-24 13:27 24.86207 67.36928 4972 ft 245 kts 58°
2026-04-24 13:27 24.87121 67.38477 4726 ft 234 kts 44°
2026-04-24 13:27 24.88443 67.39346 4554 ft 216 kts 10°
2026-04-24 13:27 24.89891 67.39431 4348 ft 204 kts 351°
2026-04-24 13:28 24.91263 67.39098 4174 ft 200 kts 342°
2026-04-24 13:28 24.92558 67.38708 3996 ft 191 kts 342°
2026-04-24 13:28 24.93817 67.38201 3649 ft 194 kts 324°
2026-04-24 13:28 24.94725 67.37128 3294 ft 191 kts 299°
2026-04-24 13:29 24.95312 67.35861 3044 ft 182 kts 284°
2026-04-24 13:29 24.95214 67.34500 2923 ft 182 kts 251°
2026-04-24 13:29 24.94807 67.33167 2821 ft 186 kts 256°
2026-04-24 13:29 24.94472 67.31795 2600 ft 181 kts 256°
2026-04-24 13:30 24.94153 67.30520 2375 ft 166 kts 257°
2026-04-24 13:30 24.93851 67.29315 2204 ft 164 kts 258°
2026-04-24 13:30 24.93548 67.28112 1978 ft 160 kts 258°
2026-04-24 13:30 24.93260 67.26971 1788 ft 147 kts 258°
2026-04-24 13:31 24.92996 67.25916 1606 ft 143 kts 256°
2026-04-24 13:31 24.92726 67.24849 1408 ft 145 kts 256°
2026-04-24 13:31 24.92460 67.23791 1233 ft 142 kts 257°
2026-04-24 13:31 24.92193 67.22733 1044 ft 144 kts 257°
2026-04-24 13:32 24.91933 67.21697 886 ft 136 kts 254°
2026-04-24 13:32 24.91677 67.20683 721 ft 141 kts 256°
2026-04-24 13:32 24.91415 67.19653 535 ft 139 kts 257°
2026-04-24 13:32 24.91166 67.18648 360 ft 134 kts 255°
2026-04-24 13:33 24.90918 67.17646 178 ft 140 kts 253°
2026-04-24 13:33 24.90660 67.16632 110 ft 128 kts 254°
2026-04-24 13:33 24.90455 67.15820 110 ft 92 kts 254°
2026-04-24 13:33 24.90317 67.15273 108 ft 56 kts 254°
2026-04-24 13:34 24.90232 67.15021 109 ft 23 kts 231°
2026-04-24 13:34 24.90136 67.14907 108 ft 14 kts 227°
2026-04-24 13:34 24.90077 67.14867 107 ft 9 kts 185°
2026-04-24 13:34 24.90031 67.14908 107 ft 10 kts 100°
2026-04-24 13:35 24.90043 67.14983 106 ft 10 kts 75°
2026-04-24 13:35 24.90062 67.15059 106 ft 10 kts 74°
2026-04-24 13:35 24.90084 67.15144 106 ft 13 kts 74°
2026-04-24 13:35 24.90110 67.15248 106 ft 16 kts 75°
2026-04-24 13:36 24.90145 67.15391 107 ft 21 kts 75°
2026-04-24 13:36 24.90186 67.15548 106 ft 21 kts 74°
2026-04-24 13:36 24.90226 67.15706 107 ft 21 kts 75°
2026-04-24 13:36 24.90265 67.15863 107 ft 21 kts 75°
2026-04-24 13:37 24.90305 67.16022 107 ft 21 kts 74°
2026-04-24 13:37 24.90345 67.16179 107 ft 21 kts 74°
2026-04-24 13:37 24.90383 67.16332 107 ft 20 kts 75°
2026-04-24 13:37 24.90420 67.16476 107 ft 20 kts 74°
2026-04-24 13:38 24.90457 67.16621 107 ft 20 kts 75°
2026-04-24 13:38 24.90493 67.16765 107 ft 20 kts 74°
2026-04-24 13:38 24.90528 67.16904 107 ft 16 kts 75°
2026-04-24 13:38 24.90546 67.16990 107 ft 9 kts 93°
2026-04-24 13:39 24.90504 67.17036 106 ft 9 kts 154°
2026-04-24 13:39 24.90444 67.17057 106 ft 9 kts 165°
2026-04-24 13:39 24.90384 67.17075 107 ft 9 kts 164°
2026-04-24 13:39 24.90332 67.17090 107 ft 6 kts 173°
2026-04-24 13:40 24.90302 67.17064 108 ft 6 kts 237°
2026-04-24 13:40 24.90286 67.17030 108 ft 4 kts 245°
2026-04-24 13:40 24.90280 67.17015 108 ft 1 kts 245°
2026-04-24 13:40 24.90278 67.17011 108 ft 0 kts 245°